TimeCDT,TemperatureF,Dew PointF,Humidity,Sea Level PressureIn,VisibilityMPH,Wind Direction,Wind SpeedMPH,Gust SpeedMPH,PrecipitationIn,Events,Conditions,WindDirDegrees,DateUTC
12:13 AM,-5.8,-16.6,60,30.25,10.0,WNW,5.8,-,N/A,,Clear,290,2013-03-17 05:13:00
12:33 AM,-9.4,-18.4,65,30.25,10.0,WNW,6.9,-,N/A,,Clear,290,2013-03-17 05:33:00
12:54 AM,-7.6,-18.4,59,30.25,10.0,WNW,8.1,-,N/A,,Clear,300,2013-03-17 05:54:00
1:13 AM,-11.2,-20.2,64,30.25,10.0,Calm,Calm,-,N/A,,Clear,0,2013-03-17 06:13:00
1:33 AM,-11.2,-18.4,70,30.25,10.0,Calm,Calm,-,N/A,,Clear,0,2013-03-17 06:33:00
1:54 AM,-11.2,-18.4,70,30.25,10.0,Calm,Calm,-,N/A,,Clear,0,2013-03-17 06:54:00
2:13 AM,-11.2,-18.4,70,30.25,10.0,Calm,Calm,-,N/A,,Clear,0,2013-03-17 07:13:00
2:33 AM,-9.4,-18.4,65,30.25,10.0,Calm,Calm,-,N/A,,Clear,0,2013-03-17 07:33:00
2:54 AM,-9.4,-16.6,71,30.25,10.0,Calm,Calm,-,N/A,,Clear,0,2013-03-17 07:54:00
3:13 AM,-11.2,-18.4,70,30.25,10.0,Calm,Calm,-,N/A,,Clear,0,2013-03-17 08:13:00
3:33 AM,-11.2,-18.4,70,30.25,10.0,Calm,Calm,-,N/A,,Clear,0,2013-03-17 08:33:00
3:54 AM,-11.2,-18.4,70,30.24,10.0,Calm,Calm,-,N/A,,Clear,0,2013-03-17 08:54:00
4:13 AM,-16.6,-20.2,84,30.23,10.0,Calm,Calm,-,N/A,,Clear,0,2013-03-17 09:13:00
4:34 AM,-16.6,-20.2,84,30.23,10.0,Calm,Calm,-,N/A,,Clear,0,2013-03-17 09:34:00
4:53 AM,-20.2,-25.6,76,30.22,10.0,Calm,Calm,-,N/A,,Clear,0,2013-03-17 09:53:00
5:13 AM,-18.4,-22.0,84,30.21,10.0,Calm,Calm,-,N/A,,Clear,0,2013-03-17 10:13:00
5:33 AM,-16.6,-23.8,70,30.20,10.0,SE,3.5,-,N/A,,Clear,140,2013-03-17 10:33:00
5:53 AM,-18.4,-23.8,76,30.19,10.0,Calm,Calm,-,N/A,,Clear,0,2013-03-17 10:53:00
6:14 AM,-25.6,-31.0,76,30.20,10.0,South,4.6,-,N/A,,Clear,180,2013-03-17 11:14:00
6:54 AM,-23.8,-29.2,76,30.19,10.0,SSE,5.8,-,N/A,,Clear,150,2013-03-17 11:54:00
7:13 AM,-23.8,-29.2,76,30.19,10.0,South,6.9,-,N/A,,Clear,180,2013-03-17 12:13:00
7:33 AM,-20.2,-25.6,76,30.19,10.0,SSE,3.5,-,N/A,,Clear,160,2013-03-17 12:33:00
7:54 AM,-20.2,-25.6,76,30.18,10.0,SSE,3.5,-,N/A,,Clear,160,2013-03-17 12:54:00
8:13 AM,-20.2,-25.6,76,30.16,10.0,Calm,Calm,-,N/A,,Clear,0,2013-03-17 13:13:00
8:33 AM,-18.4,-23.8,76,30.15,10.0,Calm,Calm,-,N/A,,Clear,0,2013-03-17 13:33:00
8:54 AM,-20.2,-27.4,69,30.16,7.0,SW,3.5,-,N/A,,Clear,220,2013-03-17 13:54:00
9:13 AM,-20.2,-25.6,76,30.17,10.0,SSW,4.6,-,N/A,,Scattered Clouds,210,2013-03-17 14:13:00
9:33 AM,-18.4,-23.8,76,30.16,10.0,SSE,3.5,-,N/A,,Mostly Cloudy,160,2013-03-17 14:33:00
9:53 AM,-16.6,-20.2,84,30.16,10.0,South,4.6,-,N/A,,Overcast,170,2013-03-17 14:53:00
10:13 AM,-14.8,-20.2,77,30.15,10.0,SSE,4.6,-,N/A,,Overcast,150,2013-03-17 15:13:00
10:33 AM,-11.2,-18.4,70,30.13,10.0,SSE,4.6,-,N/A,,Overcast,160,2013-03-17 15:33:00
10:53 AM,-7.6,-14.8,71,30.11,10.0,SSE,10.4,-,N/A,,Overcast,160,2013-03-17 15:53:00
11:13 AM,-5.8,-13.0,71,30.10,10.0,South,9.2,-,N/A,,Scattered Clouds,170,2013-03-17 16:13:00
11:33 AM,-4.0,-11.2,71,30.10,10.0,SSE,5.8,-,N/A,,Clear,150,2013-03-17 16:33:00
11:53 AM,-2.2,-11.2,66,30.10,10.0,SSE,9.2,-,N/A,,Clear,160,2013-03-17 16:53:00
12:13 PM,1.4,-9.4,61,30.08,10.0,SSE,15.0,-,N/A,,Clear,160,2013-03-17 17:13:00
12:33 PM,3.2,-7.6,61,30.08,10.0,SSE,13.8,-,N/A,,Scattered Clouds,160,2013-03-17 17:33:00
12:54 PM,3.2,-7.6,61,30.06,10.0,SSE,15.0,-,N/A,,Mostly Cloudy,160,2013-03-17 17:54:00
1:13 PM,6.8,-5.8,56,30.05,10.0,SSE,17.3,-,N/A,,Overcast,160,2013-03-17 18:13:00
1:33 PM,6.8,-5.8,56,30.03,10.0,SSE,16.1,-,N/A,,Overcast,160,2013-03-17 18:33:00
1:54 PM,8.6,-4.0,57,30.02,10.0,SSE,16.1,-,N/A,,Mostly Cloudy,160,2013-03-17 18:54:00
2:13 PM,8.6,-2.2,62,30.02,10.0,SSE,16.1,-,N/A,,Scattered Clouds,160,2013-03-17 19:13:00
2:34 PM,10.4,-4.0,52,30.01,10.0,SSE,15.0,-,N/A,,Overcast,160,2013-03-17 19:34:00
2:53 PM,10.4,-2.2,57,29.99,10.0,SSE,16.1,-,N/A,,Mostly Cloudy,160,2013-03-17 19:53:00
3:13 PM,10.4,-2.2,57,29.99,10.0,SSE,13.8,-,N/A,,Overcast,160,2013-03-17 20:13:00
3:34 PM,12.2,-2.2,53,29.98,10.0,SSE,11.5,-,N/A,,Overcast,160,2013-03-17 20:34:00
3:53 PM,12.2,-2.2,53,29.97,10.0,SSE,11.5,-,N/A,,Overcast,160,2013-03-17 20:53:00
4:13 PM,12.2,-0.4,57,29.96,10.0,SSE,10.4,-,N/A,,Overcast,150,2013-03-17 21:13:00
4:34 PM,14.0,3.2,62,29.95,10.0,South,12.7,-,N/A,,Overcast,170,2013-03-17 21:34:00
4:53 PM,14.0,-0.4,53,29.94,10.0,SSE,12.7,-,N/A,,Overcast,160,2013-03-17 21:53:00
5:13 PM,15.8,1.4,53,29.93,10.0,South,11.5,-,N/A,,Overcast,170,2013-03-17 22:13:00
5:34 PM,15.8,3.2,58,29.92,10.0,SSE,9.2,-,N/A,,Overcast,150,2013-03-17 22:34:00
5:53 PM,15.8,3.2,58,29.91,10.0,SSE,9.2,-,N/A,,Mostly Cloudy,150,2013-03-17 22:53:00
6:13 PM,15.8,3.2,58,29.90,10.0,SSE,8.1,-,N/A,,Mostly Cloudy,150,2013-03-17 23:13:00
6:34 PM,15.8,1.4,53,29.89,10.0,SE,6.9,-,N/A,,Overcast,140,2013-03-17 23:34:00
6:53 PM,15.8,3.2,58,29.88,10.0,SSE,9.2,-,N/A,,Overcast,150,2013-03-17 23:53:00
7:13 PM,15.8,5.0,62,29.87,10.0,SSE,9.2,-,N/A,,Overcast,150,2013-03-18 00:13:00
7:34 PM,15.8,6.8,68,29.86,10.0,SSE,10.4,-,N/A,,Overcast,160,2013-03-18 00:34:00
7:53 PM,15.8,8.6,73,29.85,10.0,SSE,9.2,-,N/A,,Overcast,160,2013-03-18 00:53:00
8:13 PM,17.6,6.8,63,29.84,10.0,SE,4.6,-,N/A,,Overcast,130,2013-03-18 01:13:00
8:34 PM,17.6,5.0,58,29.83,10.0,SE,6.9,-,N/A,Snow,Light Snow,140,2013-03-18 01:34:00
8:53 PM,17.6,6.8,63,29.83,10.0,SE,11.5,-,N/A,Snow,Light Snow,140,2013-03-18 01:53:00
9:13 PM,17.6,6.8,63,29.81,10.0,SE,6.9,-,N/A,,Overcast,140,2013-03-18 02:13:00
9:53 PM,17.6,6.8,63,29.79,7.0,SE,5.8,-,N/A,Snow,Light Snow,130,2013-03-18 02:53:00
10:13 PM,19.4,6.8,58,29.77,10.0,SE,6.9,-,N/A,,Overcast,130,2013-03-18 03:13:00
10:34 PM,19.4,6.8,58,29.76,10.0,SE,8.1,-,N/A,,Overcast,130,2013-03-18 03:34:00
10:53 PM,19.4,8.6,63,29.76,3.0,SSE,18.4,24.2,N/A,Snow,Light Snow,150,2013-03-18 03:53:00
11:13 PM,17.6,14.0,86,29.75,1.0,SSE,16.1,19.6,N/A,Snow,Snow,150,2013-03-18 04:13:00
11:34 PM,17.6,14.0,86,29.75,1.0,SSE,16.1,-,N/A,Snow,Snow,150,2013-03-18 04:34:00
11:53 PM,17.6,15.8,93,29.75,1.0,SSE,11.5,-,N/A,Snow,Snow,150,2013-03-18 04:53:00